HST

Last updated on Fri Jul 11 2025 00:02:13 GMT+0000 (Coordinated Universal Time)

1 20580U 90037B 25191.46752474 .00003269 00000+0 11714-3 0 9997 2 20580 28.4676 247.0913 0001947 2.9597 357.1009 15.25527579736244
UTC large
Height (km)
Speed (km/s)
/
Latitude / Longitude
Inclination (degrees)
Orbital Period (minutes)
Azimuth
Elevation
Range (km)
Doppler Factor

Next 0 passes for location: London (51.5072 / 0.1276)

Sorry there are no passes over London.